User: anonymous   Login
Location: York
(31.8935°S, 116.7682°E)
Time: 23:23:28
(UTC+08:00)
Language:

NOAA 19 - Orbit

View from above orbital plane
View from above orbital plane
View from above satellite
View from above satellite

Ground track
Ground track

The orbit data is extracted from the following two-line orbital elements,

1 33591U 09005A   21215.30295955  .00000054  00000-0  54358-4 0  9992
2 33591  99.1817 237.1646 0013957   5.5180 354.6142 14.12486902643534
Epoch (UTC): 03 August 2021 07:16:15
Eccentricity: 0.0013957
inclination: 99.1817°
perigee height: 841 km
apogee height: 861 km
right ascension of ascending node: 237.1646°
argument of perigee: 5.5180°
revolutions per day: 14.12486902
mean anomaly at epoch: 354.6142°
orbit number at epoch: 64353

The dashed part of the orbit path shows where the satellite is in the earth's shadow,  

DLR